Location: Mount Nemo Observatory
(43.4112°N, 79.8736°W)
Time: 00:18:50
(UTC-05:00)

Tiangong 1 - Visible Passes

Search period start: 17 January 2018 00:00
Search period end: 27 January 2018 00:00
Orbit: 264 x 288 km, 42.8° (Epoch: 16 January)

Date Brightness Start Highest point End Pass type
(mag) Time Alt. Az. Time Alt. Az. Time Alt. Az.
17 Jan 0.8 17:57:55 10° WSW 18:00:22 57° SSE 18:02:21 14° E visible
17 Jan 4.2 19:32:10 10° W 19:32:21 11° W 19:32:21 11° W visible
18 Jan 0.5 17:57:43 10° W 18:00:11 72° S 18:02:15 13° E visible
18 Jan 4.2 19:32:01 10° W 19:32:15 12° W 19:32:15 12° W visible
19 Jan 0.4 17:57:24 10° W 17:59:53 78° S 18:02:03 12° E visible
19 Jan 4.1 19:31:44 10° W 19:32:02 12° W 19:32:02 12° W visible
20 Jan 0.5 17:56:57 10° W 17:59:26 75° S 18:01:47 11° E visible
20 Jan 4.1 19:31:22 10° W 19:31:46 13° WSW 19:31:46 13° WSW visible
21 Jan 0.8 17:56:22 10° W 17:58:49 63° S 18:01:15 10° ESE visible
21 Jan 4.0 19:31:00 10° WSW 19:31:26 12° WSW 19:31:26 12° WSW visible
22 Jan 1.3 17:55:38 10° W 17:58:02 47° SSW 18:00:25 10° ESE visible
22 Jan 4.0 19:30:56 10° SW 19:31:06 10° SW 19:31:06 10° SW visible
23 Jan 2.1 17:54:48 10° W 17:57:04 32° SSW 17:59:20 10° SE visible
24 Jan 2.9 17:53:56 10° WSW 17:55:56 22° SSW 17:57:55 10° SSE visible
25 Jan 3.5 17:53:10 10° WSW 17:54:36 14° SSW 17:56:02 10° S visible
